Preview of NWS' New Version of Forecast
This preview is not operational and should not be used for support decisions.

Regional Weather Roundup (RWR)

Issued by Tampa Bay Area, FL (TBW)

                            
000
NZUS99 KTBW 200917
RWRTBW
Regional Weather Roundup National Weather Service Ruskin Florida
400 AM EST WED FEB 20 2019

  
CITY           SKY/WX    TMP DP  RH WIND       PRES   REMARKS
Cross City     CLOUDY    60  59  97 NE6       30.12F                  
Williston        N/A    N/A N/A N/A MISG        N/A                   
Gainesville    CLOUDY    64  60  87 N6        30.15F                  
Ocala          CLOUDY    66  66 100 NE3       30.11F FOG              
Crystal River  FAIR      64  64 100 E3        30.09F FOG              
Inverness      MOCLDY    68  68 100 NE3       30.10F                  
Leesburg       FAIR      66  66 100 NE3       30.11F                  
Orlando        FAIR      70  67  90 SE6       30.11F                  
Brooksville    FAIR      70  67  90 E7        30.09F                  
Zephyrhills    FAIR      68  67  98 E3        30.10F                  
Winter Haven   FAIR      72  69  90 SE6       30.10F                  
Bartow         FAIR      68  68 100 E7        30.09F                  

CITY           SKY/WX    TMP DP  RH WIND       PRES   REMARKS
Tampa Intl     FAIR      71  67  87 SE7       30.08F                  
Tampa Exec     FAIR      70  66  88 CALM      30.09F                  
MacDill AFB    FAIR      70  66  89 SE8       30.07F                  
Peter O Knight FAIR     N/A N/A N/A E6        30.09S                  
Plant City     FAIR      72  68  88 E7        30.11S                  
Clearwater     FAIR      71  66  84 SE8       30.08S                  
St Petersburg  FAIR      70  67  90 E9        30.06F                  
Sarasota       MOCLDY    71  68  90 SE12      30.05F                  
Sebring        CLOUDY    70  68  96 E3        30.10F                  
Punta Gorda    CLOUDY    71  68  90 SE8       30.08F                  
Ft Myers       CLOUDY    72  69  90 E6        30.06F                  
Ft Myers-RSW   CLOUDY    71  69  93 E7        30.07F                  
Naples         CLOUDY    74  71  91 SE8       30.06S                  

STATION/POSITION SKY/WX   TEMP WIND        PRES    VSBY
                          AIR  DIR/SP/G
                          (F)  (DEG/KT/KT) (MB)    (MI)
Keaton Beach               56   50/  9/ 14 1019.5F
Sand Key                   77              1017.0F
003 Captiva                78  140/ 16/ 21 1015.7F
Venice                     71  110/  6/  8   N/A
Cedar Key                  67   80/ 10/ 12 1019.2F

CITY           SKY/WX    TMP DP  RH WIND       PRES   REMARKS
Tallahassee    CLOUDY    56  54  93 E8        30.11F                  
Daytona Beach  FAIR      70  69  97 CALM      30.12F                  
Melbourne      FAIR      73  67  81 SE9       30.10F                  
W Palm Beach   MOCLDY    77  69  76 SE20G26   30.10F                  
Miami          LGT RAIN  76  73  91 SE13      30.09F                  
Key West       FAIR      78  71  79 SE17      30.05F                  
San Juan, PR   MOCLDY    73  70  88 E13       30.08  FOG              
Cancun, MX     PTCLDY    77  72  83 SE13      29.93F